| time (UTC) | temp C | wind direction | speed KPH | gust KPH | rain 1hr cm | rain 24hr cm | rain mn cm | humidity % | barometer mb |
| 20260507010504 | 18 | 113 | 0.0 | 0.0 | 0.00 | 0.03 | 0.03 | 87 | 1009.6 |
| 20260507005505 | 18 | 113 | 0.0 | 0.0 | 0.00 | 0.03 | 0.03 | 86 | 1009.6 |
| 20260507005004 | 18 | 113 | 0.0 | 0.0 | 0.00 | 0.03 | 0.03 | 86 | 1009.6 |
| 20260507004504 | 19 | 113 | 0.0 | 0.0 | 0.00 | 0.03 | 0.03 | 85 | 1009.4 |
| 20260507004004 | 19 | 113 | 0.0 | 0.0 | 0.00 | 0.03 | 0.03 | 84 | 1009.3 |
| 20260507002003 | 20 | 113 | 0.0 | 0.0 | 0.00 | 0.03 | 0.03 | 83 | 1009.1 |
| 20260507001504 | 20 | 114 | 0.0 | 0.0 | 0.00 | 0.03 | 0.03 | 82 | 1009.2 |
| 20260507001004 | 20 | 114 | 0.0 | 1.6 | 0.00 | 0.03 | 0.03 | 82 | 1009.1 |
| 20260507000505 | 20 | 113 | 0.0 | 4.8 | 0.00 | 0.03 | 0.03 | 81 | 1009.1 |
| 20260507000005 | 20 | 141 | 0.0 | 4.8 | 0.00 | 0.03 | 0.03 | 81 | 1009.1 |
| 20260506235504 | 20 | 146 | 0.0 | 1.6 | 0.00 | 0.03 | 0.03 | 81 | 1009.0 |
| 20260506235004 | 20 | 94 | 0.0 | 4.8 | 0.00 | 0.03 | 0.03 | 80 | 1009.0 |
| 20260506234504 | 21 | 139 | 0.0 | 4.8 | 0.00 | 0.03 | 0.03 | 80 | 1008.9 |
| 20260506234005 | 21 | 129 | 0.0 | 4.8 | 0.00 | 0.03 | 0.03 | 80 | 1008.9 |
| 20260506232505 | 21 | 346 | 1.6 | 4.8 | 0.00 | 0.03 | 0.03 | 78 | 1008.8 |
| 20260506232004 | 21 | 192 | 1.6 | 4.8 | 0.00 | 0.03 | 0.03 | 78 | 1008.8 |
| 20260506231505 | 21 | 116 | 1.6 | 9.7 | 0.00 | 0.03 | 0.03 | 78 | 1008.9 |
| 20260506231004 | 21 | 233 | 1.6 | 9.7 | 0.00 | 0.03 | 0.03 | 77 | 1008.9 |
| 20260506230504 | 21 | 223 | 1.6 | 16.1 | 0.00 | 0.03 | 0.03 | 77 | 1008.9 |
| 20260506230005 | 21 | 124 | 3.2 | 16.1 | 0.00 | 0.03 | 0.03 | 77 | 1008.9 |
| 20260506225504 | 21 | 170 | 1.6 | 16.1 | 0.00 | 0.03 | 0.03 | 77 | 1009.0 |
| 20260506225004 | 21 | 126 | 3.2 | 8.0 | 0.00 | 0.03 | 0.03 | 76 | 1008.9 |
| 20260506224504 | 21 | 175 | 1.6 | 8.0 | 0.00 | 0.03 | 0.03 | 76 | 1008.9 |
| 20260506224003 | 21 | 195 | 1.6 | 11.3 | 0.00 | 0.03 | 0.03 | 76 | 1008.9 |
| 20260506223503 | 22 | 203 | 3.2 | 11.3 | 0.00 | 0.03 | 0.03 | 76 | 1008.8 |
| 20260506223004 | 22 | 229 | 3.2 | 11.3 | 0.00 | 0.03 | 0.03 | 76 | 1008.9 |
| 20260506222504 | 22 | 114 | 1.6 | 11.3 | 0.00 | 0.03 | 0.03 | 76 | 1008.8 |
| 20260506221504 | 22 | 211 | 4.8 | 14.5 | 0.00 | 0.03 | 0.03 | 76 | 1008.9 |
| 20260506221004 | 22 | 192 | 3.2 | 14.5 | 0.00 | 0.03 | 0.03 | 76 | 1008.9 |
| 20260506220505 | 22 | 181 | 3.2 | 14.5 | 0.00 | 0.03 | 0.03 | 76 | 1008.7 |
| 20260506215006 | 22 | 219 | 4.8 | 22.5 | 0.00 | 0.03 | 0.03 | 75 | 1008.8 |
| 20260506214506 | 22 | 165 | 3.2 | 19.3 | 0.00 | 0.03 | 0.03 | 75 | 1008.6 |
| 20260506214005 | 22 | 158 | 3.2 | 25.7 | 0.00 | 0.03 | 0.03 | 76 | 1008.5 |
| 20260506213504 | 22 | 169 | 6.4 | 27.4 | 0.00 | 0.03 | 0.03 | 76 | 1008.6 |
| 20260506213005 | 22 | 200 | 11.3 | 27.4 | 0.00 | 0.03 | 0.03 | 76 | 1008.7 |
| 20260506212004 | 21 | 326 | 1.6 | 22.5 | 0.00 | 0.03 | 0.03 | 77 | 1008.5 |
| 20260506211504 | 21 | 159 | 4.8 | 22.5 | 0.00 | 0.03 | 0.03 | 77 | 1008.5 |
| 20260506211004 | 21 | 185 | 3.2 | 22.5 | 0.00 | 0.03 | 0.03 | 77 | 1008.5 |
| 20260506210504 | 21 | 129 | 1.6 | 22.5 | 0.00 | 0.03 | 0.03 | 77 | 1008.4 |
| 20260506210004 | 21 | 185 | 6.4 | 22.5 | 0.00 | 0.03 | 0.03 | 77 | 1008.3 |
| 20260506205504 | 21 | 185 | 6.4 | 19.3 | 0.00 | 0.03 | 0.03 | 77 | 1008.4 |
| 20260506205005 | 21 | 237 | 3.2 | 32.2 | 0.00 | 0.03 | 0.03 | 77 | 1008.5 |
| 20260506204504 | 21 | 100 | 3.2 | 32.2 | 0.00 | 0.03 | 0.03 | 77 | 1008.5 |
| 20260506204004 | 21 | 198 | 6.4 | 19.3 | 0.00 | 0.03 | 0.03 | 76 | 1008.3 |
| 20260506203004 | 22 | 219 | 6.4 | 22.5 | 0.00 | 0.03 | 0.03 | 76 | 1008.2 |
| 20260506202505 | 22 | 262 | 3.2 | 22.5 | 0.00 | 0.03 | 0.03 | 75 | 1008.2 |
| 20260506202004 | 22 | 188 | 6.4 | 19.3 | 0.00 | 0.03 | 0.03 | 75 | 1008.4 |
| 20260506201504 | 22 | 194 | 8.0 | 19.3 | 0.00 | 0.03 | 0.03 | 75 | 1008.4 |
| 20260506200504 | 22 | 188 | 4.8 | 22.5 | 0.03 | 0.03 | 0.03 | 75 | 1008.7 |
| 20260506195504 | 22 | 128 | 4.8 | 16.1 | 0.03 | 0.03 | 0.03 | 75 | 1009.0 |
| 20260506195005 | 22 | 156 | 4.8 | 32.2 | 0.03 | 0.03 | 0.03 | 75 | 1009.1 |
| 20260506194505 | 22 | 170 | 6.4 | 32.2 | 0.03 | 0.03 | 0.03 | 75 | 1008.8 |
| 20260506194004 | 22 | 210 | 8.0 | 16.1 | 0.03 | 0.03 | 0.03 | 75 | 1008.6 |
| 20260506193504 | 22 | 169 | 4.8 | 19.3 | 0.03 | 0.03 | 0.03 | 75 | 1008.4 |
| 20260506193004 | 22 | 271 | 3.2 | 22.5 | 0.03 | 0.03 | 0.03 | 75 | 1008.5 |
| 20260506192505 | 22 | 167 | 8.0 | 22.5 | 0.03 | 0.03 | 0.03 | 75 | 1008.7 |
| 20260506192004 | 22 | 204 | 4.8 | 29.0 | 0.03 | 0.03 | 0.03 | 76 | 1008.7 |
| 20260506191504 | 22 | 192 | 3.2 | 29.0 | 0.03 | 0.03 | 0.03 | 76 | 1009.0 |
| 20260506190504 | 22 | 240 | 4.8 | 19.3 | 0.00 | 0.00 | 0.00 | 76 | 1009.4 |
| 20260506190005 | 22 | 172 | 4.8 | 19.3 | 0.00 | 0.00 | 0.00 | 76 | 1009.4 |
| 20260506185504 | 22 | 216 | 6.4 | 19.3 | 0.00 | 0.00 | 0.00 | 77 | 1009.5 |
| 20260506185003 | 21 | 185 | 4.8 | 22.5 | 0.00 | 0.00 | 0.00 | 77 | 1009.3 |
| 20260506184005 | 21 | 170 | 8.0 | 16.1 | 0.00 | 0.00 | 0.00 | 78 | 1009.4 |
| 20260506183504 | 21 | 180 | 3.2 | 14.5 | 0.00 | 0.00 | 0.00 | 79 | 1009.7 |
| 20260506183005 | 21 | 232 | 4.8 | 14.5 | 0.00 | 0.00 | 0.00 | 79 | 1009.7 |
| 20260506182505 | 21 | 174 | 4.8 | 19.3 | 0.00 | 0.00 | 0.00 | 81 | 1009.7 |
| 20260506182004 | 20 | 193 | 4.8 | 19.3 | 0.00 | 0.00 | 0.00 | 81 | 1010.0 |
| 20260506181504 | 20 | 242 | 4.8 | 19.3 | 0.00 | 0.00 | 0.00 | 81 | 1010.3 |
| 20260506181004 | 20 | 158 | 4.8 | 19.3 | 0.00 | 0.00 | 0.00 | 81 | 1010.0 |
| 20260506180504 | 20 | 243 | 8.0 | 19.3 | 0.00 | 0.00 | 0.00 | 81 | 1010.1 |
| 20260506180005 | 20 | 211 | 4.8 | 19.3 | 0.00 | 0.00 | 0.00 | 82 | 1010.3 |
| 20260506175504 | 20 | 196 | 3.2 | 16.1 | 0.00 | 0.00 | 0.00 | 82 | 1010.3 |
| 20260506175004 | 20 | 156 | 1.6 | 16.1 | 0.00 | 0.00 | 0.00 | 83 | 1010.3 |
| 20260506174505 | 20 | 212 | 4.8 | 16.1 | 0.00 | 0.00 | 0.00 | 82 | 1010.0 |
| 20260506174004 | 20 | 254 | 1.6 | 14.5 | 0.00 | 0.00 | 0.00 | 83 | 1010.1 |
| 20260506173505 | 20 | 226 | 1.6 | 14.5 | 0.00 | 0.00 | 0.00 | 83 | 1010.2 |
| 20260506172503 | 20 | 207 | 4.8 | 24.1 | 0.00 | 0.00 | 0.00 | 83 | 1010.2 |
| 20260506171005 | 20 | 233 | 3.2 | 19.3 | 0.00 | 0.00 | 0.00 | 82 | 1010.4 |
| 20260506170503 | 20 | 231 | 3.2 | 19.3 | 0.00 | 0.00 | 0.00 | 81 | 1010.3 |
| 20260506170004 | 20 | 219 | 3.2 | 16.1 | 0.00 | 0.00 | 0.00 | 82 | 1010.7 |
| 20260506165504 | 20 | 191 | 4.8 | 16.1 | 0.00 | 0.00 | 0.00 | 81 | 1010.7 |
| 20260506165004 | 20 | 225 | 1.6 | 16.1 | 0.00 | 0.00 | 0.00 | 80 | 1010.9 |
| 20260506164504 | 20 | 227 | 4.8 | 12.9 | 0.00 | 0.00 | 0.00 | 79 | 1011.1 |
| 20260506164004 | 20 | 282 | 3.2 | 19.3 | 0.00 | 0.00 | 0.00 | 78 | 1011.2 |
| 20260506163504 | 20 | 214 | 3.2 | 29.0 | 0.00 | 0.00 | 0.00 | 77 | 1011.3 |
| 20260506163005 | 21 | 221 | 4.8 | 29.0 | 0.00 | 0.00 | 0.00 | 76 | 1011.5 |
| 20260506162504 | 22 | 192 | 4.8 | 16.1 | 0.00 | 0.00 | 0.00 | 73 | 1011.6 |
| 20260506162004 | 22 | 298 | 3.2 | 12.9 | 0.00 | 0.00 | 0.00 | 71 | 1011.6 |
| 20260506161505 | 22 | 65 | 3.2 | 11.3 | 0.00 | 0.00 | 0.00 | 69 | 1011.5 |
| 20260506160504 | 22 | 132 | 4.8 | 19.3 | 0.00 | 0.00 | 0.00 | 68 | 1011.4 |
| 20260506160005 | 23 | 214 | 4.8 | 20.9 | 0.00 | 0.00 | 0.00 | 67 | 1011.5 |
| 20260506155504 | 23 | 200 | 6.4 | 24.1 | 0.00 | 0.00 | 0.00 | 67 | 1011.7 |
| 20260506155004 | 23 | 162 | 3.2 | 24.1 | 0.00 | 0.00 | 0.00 | 67 | 1011.7 |
| 20260506154505 | 23 | 168 | 6.4 | 24.1 | 0.00 | 0.00 | 0.00 | 67 | 1011.6 |
| 20260506154007 | 23 | 244 | 3.2 | 16.1 | 0.00 | 0.00 | 0.00 | 68 | 1011.7 |
| 20260506153504 | 23 | 157 | 3.2 | 29.0 | 0.00 | 0.00 | 0.00 | 66 | 1011.6 |
| 20260506153004 | 23 | 190 | 9.7 | 29.0 | 0.00 | 0.00 | 0.00 | 64 | 1011.7 |
| 20260506152504 | 23 | 232 | 8.0 | 20.9 | 0.00 | 0.00 | 0.00 | 65 | 1011.6 |
| 20260506151504 | 23 | 203 | 3.2 | 16.1 | 0.00 | 0.00 | 0.00 | 66 | 1011.6 |
| 20260506151004 | 23 | 209 | 3.2 | 12.9 | 0.00 | 0.00 | 0.00 | 67 | 1011.7 |
| 20260506150005 | 22 | 196 | 4.8 | 20.9 | 0.00 | 0.00 | 0.00 | 67 | 1011.7 |
| 20260506145005 | 22 | 203 | 4.8 | 32.2 | 0.00 | 0.00 | 0.00 | 67 | 1011.8 |
| 20260506144504 | 22 | 208 | 6.4 | 32.2 | 0.00 | 0.00 | 0.00 | 66 | 1011.6 |
| 20260506144004 | 23 | 203 | 6.4 | 20.9 | 0.00 | 0.00 | 0.00 | 66 | 1011.6 |
| 20260506143503 | 23 | 237 | 8.0 | 20.9 | 0.00 | 0.00 | 0.00 | 66 | 1011.7 |
| 20260506143004 | 23 | 215 | 4.8 | 25.7 | 0.00 | 0.00 | 0.00 | 66 | 1011.8 |
| 20260506142504 | 23 | 214 | 4.8 | 25.7 | 0.00 | 0.00 | 0.00 | 67 | 1011.8 |
| 20260506142003 | 23 | 193 | 4.8 | 19.3 | 0.00 | 0.00 | 0.00 | 66 | 1011.8 |
| 20260506141504 | 23 | 184 | 3.2 | 19.3 | 0.00 | 0.00 | 0.00 | 67 | 1011.8 |
| 20260506141004 | 23 | 248 | 3.2 | 22.5 | 0.00 | 0.00 | 0.00 | 66 | 1011.8 |
| 20260506140503 | 23 | 202 | 4.8 | 22.5 | 0.00 | 0.00 | 0.00 | 66 | 1011.8 |
| 20260506140004 | 23 | 186 | 8.0 | 22.5 | 0.00 | 0.00 | 0.00 | 66 | 1011.7 |
| 20260506135504 | 22 | 187 | 4.8 | 29.0 | 0.00 | 0.00 | 0.00 | 67 | 1011.7 |
| 20260506135004 | 22 | 225 | 8.0 | 29.0 | 0.00 | 0.00 | 0.00 | 67 | 1011.7 |
| 20260506134504 | 22 | 203 | 11.3 | 29.0 | 0.00 | 0.00 | 0.00 | 66 | 1011.8 |
| 20260506134004 | 22 | 176 | 4.8 | 27.4 | 0.00 | 0.00 | 0.00 | 68 | 1011.9 |
| 20260506133504 | 22 | 227 | 9.7 | 27.4 | 0.00 | 0.00 | 0.00 | 68 | 1011.9 |
| 20260506133004 | 22 | 197 | 4.8 | 25.7 | 0.00 | 0.00 | 0.00 | 69 | 1012.0 |
| 20260506132504 | 22 | 189 | 4.8 | 19.3 | 0.00 | 0.00 | 0.00 | 69 | 1012.1 |
| 20260506132004 | 21 | 183 | 3.2 | 19.3 | 0.00 | 0.00 | 0.00 | 70 | 1012.0 |
| 20260506131504 | 21 | 162 | 6.4 | 25.7 | 0.00 | 0.00 | 0.00 | 70 | 1012.0 |
| 20260506131004 | 21 | 171 | 8.0 | 25.7 | 0.00 | 0.00 | 0.00 | 70 | 1012.0 |
| 20260506130004 | 21 | 278 | 3.2 | 14.5 | 0.00 | 0.00 | 0.00 | 72 | 1012.2 |
| 20260506125505 | 20 | 210 | 3.2 | 19.3 | 0.00 | 0.00 | 0.00 | 73 | 1012.3 |
| 20260506124005 | 20 | 216 | 1.6 | 12.9 | 0.00 | 0.00 | 0.00 | 74 | 1012.3 |
| 20260506123004 | 20 | 237 | 1.6 | 16.1 | 0.00 | 0.00 | 0.00 | 73 | 1012.4 |
| 20260506122504 | 20 | 187 | 3.2 | 16.1 | 0.00 | 0.00 | 0.00 | 73 | 1012.4 |
| 20260506122004 | 20 | 203 | 4.8 | 14.5 | 0.00 | 0.00 | 0.00 | 73 | 1012.3 |
| 20260506121504 | 20 | 212 | 4.8 | 14.5 | 0.00 | 0.00 | 0.00 | 72 | 1012.2 |
| 20260506121004 | 20 | 234 | 3.2 | 19.3 | 0.00 | 0.00 | 0.00 | 72 | 1012.1 |
| 20260506120004 | 20 | 144 | 1.6 | 12.9 | 0.00 | 0.00 | 0.00 | 74 | 1012.2 |
| 20260506115507 | 20 | 193 | 3.2 | 12.9 | 0.00 | 0.00 | 0.00 | 75 | 1012.2 |
| 20260506115004 | 19 | 195 | 3.2 | 12.9 | 0.00 | 0.00 | 0.00 | 76 | 1012.2 |
| 20260506114505 | 18 | 208 | 1.6 | 4.8 | 0.00 | 0.00 | 0.00 | 76 | 1012.1 |
| 20260506114005 | 18 | 225 | 3.2 | 11.3 | 0.00 | 0.00 | 0.00 | 76 | 1012.2 |
| 20260506113504 | 18 | 214 | 3.2 | 11.3 | 0.00 | 0.00 | 0.00 | 76 | 1012.2 |
| 20260506113004 | 18 | 228 | 3.2 | 11.3 | 0.00 | 0.00 | 0.00 | 76 | 1012.1 |
| 20260506112505 | 18 | 220 | 3.2 | 19.3 | 0.00 | 0.00 | 0.00 | 76 | 1012.1 |
| 20260506111503 | 18 | 196 | 4.8 | 14.5 | 0.00 | 0.00 | 0.00 | 76 | 1011.9 |
| 20260506110504 | 18 | 207 | 3.2 | 8.0 | 0.00 | 0.00 | 0.00 | 78 | 1012.2 |
| 20260506105503 | 17 | 223 | 1.6 | 8.0 | 0.00 | 0.00 | 0.00 | 79 | 1012.1 |
| 20260506105004 | 17 | 222 | 1.6 | 8.0 | 0.00 | 0.00 | 0.00 | 79 | 1012.1 |
| 20260506103504 | 17 | 210 | 1.6 | 11.3 | 0.00 | 0.00 | 0.00 | 79 | 1012.3 |
| 20260506103004 | 17 | 208 | 3.2 | 11.3 | 0.00 | 0.00 | 0.00 | 79 | 1012.4 |
| 20260506102505 | 17 | 250 | 1.6 | 9.7 | 0.00 | 0.00 | 0.00 | 79 | 1012.4 |
| 20260506102004 | 17 | 204 | 3.2 | 9.7 | 0.00 | 0.00 | 0.00 | 79 | 1012.3 |
| 20260506101504 | 17 | 213 | 1.6 | 11.3 | 0.00 | 0.00 | 0.00 | 78 | 1012.3 |
| 20260506101004 | 17 | 172 | 1.6 | 11.3 | 0.00 | 0.00 | 0.00 | 78 | 1012.3 |
| 20260506100004 | 17 | 220 | 1.6 | 14.5 | 0.00 | 0.00 | 0.00 | 78 | 1011.9 |
| 20260506095505 | 17 | 255 | 3.2 | 14.5 | 0.00 | 0.00 | 0.00 | 78 | 1012.0 |
| 20260506095004 | 17 | 217 | 1.6 | 12.9 | 0.00 | 0.00 | 0.00 | 78 | 1012.0 |
| 20260506094005 | 17 | 176 | 3.2 | 9.7 | 0.00 | 0.00 | 0.00 | 77 | 1012.1 |
| 20260506093504 | 17 | 209 | 3.2 | 9.7 | 0.00 | 0.00 | 0.00 | 77 | 1012.2 |
| 20260506093004 | 17 | 239 | 1.6 | 9.7 | 0.00 | 0.00 | 0.00 | 77 | 1012.2 |
| 20260506092504 | 17 | 225 | 3.2 | 9.7 | 0.00 | 0.00 | 0.00 | 77 | 1012.1 |
| 20260506091504 | 17 | 202 | 1.6 | 9.7 | 0.00 | 0.00 | 0.00 | 76 | 1012.1 |
| 20260506091004 | 17 | 254 | 3.2 | 11.3 | 0.00 | 0.00 | 0.00 | 76 | 1012.0 |
| 20260506090504 | 17 | 208 | 3.2 | 11.3 | 0.00 | 0.00 | 0.00 | 76 | 1012.0 |
| 20260506085505 | 17 | 185 | 1.6 | 11.3 | 0.00 | 0.00 | 0.00 | 76 | 1012.2 |
| 20260506085004 | 17 | 204 | 3.2 | 14.5 | 0.00 | 0.00 | 0.00 | 76 | 1012.3 |
| 20260506084005 | 17 | 214 | 3.2 | 16.1 | 0.00 | 0.00 | 0.00 | 76 | 1012.3 |
| 20260506083504 | 17 | 222 | 1.6 | 9.7 | 0.00 | 0.00 | 0.00 | 77 | 1012.2 |
| 20260506083005 | 17 | 231 | 1.6 | 19.3 | 0.00 | 0.00 | 0.00 | 77 | 1012.2 |
| 20260506082503 | 17 | 212 | 3.2 | 19.3 | 0.00 | 0.00 | 0.00 | 77 | 1012.3 |
| 20260506081504 | 17 | 171 | 3.2 | 12.9 | 0.00 | 0.00 | 0.00 | 77 | 1012.5 |
| 20260506081004 | 17 | 223 | 3.2 | 12.9 | 0.00 | 0.00 | 0.00 | 77 | 1012.4 |
| 20260506073005 | 18 | 215 | 3.2 | 14.5 | 0.00 | 0.00 | 0.00 | 79 | 1012.3 |
| 20260506072004 | 17 | 217 | 1.6 | 9.7 | 0.00 | 0.00 | 0.00 | 80 | 1012.2 |
| 20260506071504 | 17 | 224 | 3.2 | 9.7 | 0.00 | 0.00 | 0.00 | 80 | 1012.2 |
| 20260506071004 | 18 | 215 | 1.6 | 14.5 | 0.00 | 0.00 | 0.00 | 80 | 1012.2 |
| 20260506070504 | 18 | 192 | 3.2 | 14.5 | 0.00 | 0.00 | 0.00 | 80 | 1012.2 |
| 20260506062504 | 18 | 182 | 3.2 | 14.5 | 0.00 | 0.00 | 0.00 | 81 | 1012.4 |
| 20260506061504 | 18 | 229 | 1.6 | 12.9 | 0.00 | 0.00 | 0.00 | 81 | 1012.5 |
| 20260506060505 | 18 | 201 | 1.6 | 11.3 | 0.00 | 0.00 | 0.00 | 81 | 1012.7 |
| 20260506051004 | 18 | 210 | 1.6 | 9.7 | 0.00 | 0.00 | 0.00 | 81 | 1012.9 |
| 20260506050504 | 18 | 218 | 3.2 | 11.3 | 0.00 | 0.00 | 0.00 | 81 | 1012.9 |
| 20260506045004 | 18 | 218 | 1.6 | 14.5 | 0.00 | 0.00 | 0.00 | 81 | 1013.0 |
| 20260506044504 | 18 | 237 | 3.2 | 11.3 | 0.00 | 0.00 | 0.00 | 81 | 1013.1 |
| 20260506044004 | 18 | 226 | 1.6 | 8.0 | 0.00 | 0.00 | 0.00 | 81 | 1013.0 |
| 20260506043504 | 18 | 209 | 1.6 | 8.0 | 0.00 | 0.00 | 0.00 | 81 | 1013.1 |
| 20260506043004 | 18 | 195 | 3.2 | 8.0 | 0.00 | 0.00 | 0.00 | 81 | 1013.0 |
| 20260506042504 | 18 | 173 | 1.6 | 8.0 | 0.00 | 0.00 | 0.00 | 81 | 1013.0 |
| 20260506041504 | 18 | 175 | 1.6 | 9.7 | 0.00 | 0.00 | 0.00 | 80 | 1013.0 |
| 20260506041005 | 18 | 225 | 3.2 | 9.7 | 0.00 | 0.00 | 0.00 | 80 | 1013.0 |
| 20260506040504 | 18 | 232 | 1.6 | 11.3 | 0.00 | 0.00 | 0.00 | 80 | 1012.9 |
| 20260506035504 | 18 | 189 | 3.2 | 11.3 | 0.00 | 0.00 | 0.00 | 80 | 1013.0 |
| 20260506035004 | 18 | 200 | 1.6 | 9.7 | 0.00 | 0.00 | 0.00 | 79 | 1013.0 |
| 20260506034004 | 18 | 192 | 3.2 | 12.9 | 0.00 | 0.00 | 0.00 | 79 | 1013.0 |
| 20260506033504 | 18 | 218 | 1.6 | 9.7 | 0.00 | 0.00 | 0.00 | 79 | 1012.9 |
| 20260506033004 | 18 | 182 | 3.2 | 9.7 | 0.00 | 0.00 | 0.00 | 79 | 1013.0 |
| 20260506032003 | 19 | 222 | 3.2 | 8.0 | 0.00 | 0.00 | 0.00 | 78 | 1013.1 |
| 20260506031004 | 19 | 206 | 3.2 | 14.5 | 0.00 | 0.00 | 0.00 | 78 | 1013.0 |
| 20260506030504 | 19 | 217 | 1.6 | 14.5 | 0.00 | 0.00 | 0.00 | 78 | 1012.9 |
| 20260506030004 | 19 | 206 | 3.2 | 14.5 | 0.00 | 0.00 | 0.00 | 78 | 1013.0 |
| 20260506025504 | 19 | 202 | 3.2 | 16.1 | 0.00 | 0.00 | 0.00 | 78 | 1012.9 |
| 20260506025004 | 19 | 209 | 4.8 | 16.1 | 0.00 | 0.00 | 0.00 | 78 | 1013.0 |
| 20260506024504 | 19 | 226 | 3.2 | 14.5 | 0.00 | 0.00 | 0.00 | 78 | 1013.0 |
| 20260506024004 | 19 | 185 | 3.2 | 11.3 | 0.00 | 0.00 | 0.00 | 78 | 1013.0 |
| 20260506023004 | 19 | 200 | 1.6 | 20.9 | 0.00 | 0.00 | 0.00 | 77 | 1013.0 |
| 20260506022004 | 19 | 227 | 3.2 | 12.9 | 0.00 | 0.00 | 0.00 | 76 | 1013.0 |
| 20260506021505 | 19 | 209 | 3.2 | 12.9 | 0.00 | 0.00 | 0.00 | 76 | 1013.2 |
| 20260506020503 | 19 | 165 | 3.2 | 12.9 | 0.00 | 0.00 | 0.00 | 76 | 1013.0 |
| 20260506020004 | 19 | 208 | 3.2 | 14.5 | 0.00 | 0.00 | 0.00 | 76 | 1012.9 |
| 20260506015004 | 20 | 221 | 4.8 | 12.9 | 0.00 | 0.00 | 0.00 | 75 | 1012.8 |
| 20260506014004 | 20 | 219 | 3.2 | 11.3 | 0.00 | 0.00 | 0.00 | 75 | 1012.9 |
| 20260506013504 | 20 | 223 | 3.2 | 11.3 | 0.00 | 0.00 | 0.00 | 75 | 1012.7 |
| 20260506013004 | 20 | 210 | 3.2 | 12.9 | 0.00 | 0.00 | 0.00 | 75 | 1012.7 |
| 20260506012504 | 20 | 193 | 3.2 | 12.9 | 0.00 | 0.00 | 0.00 | 74 | 1012.5 |
| 20260506012004 | 20 | 193 | 3.2 | 11.3 | 0.00 | 0.00 | 0.00 | 74 | 1012.5 |
| 20260506011504 | 20 | 212 | 3.2 | 16.1 | 0.00 | 0.00 | 0.00 | 74 | 1012.3 |
| 20260506011004 | 20 | 219 | 4.8 | 16.1 | 0.00 | 0.00 | 0.00 | 74 | 1012.4 |